Back to catalog

STARLINK-35941

AliveCommunicationsVLEO
NORAD 66583·PAYLOAD·🇺🇸 United States

Launched Nov 21, 2025 from Cape Canaveral Space Force Station

Loading…

Next Passes (next 24 hours)

TLE

FreshSource: CelesTrak SupGP

Epoch: Sep 15, 2026, 03:04 UTC

1 66583C 25268AC  26258.12826389  .00041113  00000+0  14891-2 0  2585
2 66583  43.0031 356.8868 0001261 266.2967 165.9621 15.27558441    16

Track STARLINK-35941 in real time with AllMySat

Download on the App Store